{"data":{"norad_id":47789,"intl_designator":"2021-018C","name":"STARLINK-2315","alt_names":[],"object_type":"PAYLOAD","status":"ACTIVE","operator":null,"country":"US","launch_date":"2021-03-11","launch_site_code":"AFETR","launch_vehicle":null,"mission":null,"orbit_class":"UNKNOWN","rcs_meters":null,"size_class":null,"mass_kg":null,"dimensions":null,"purposes":["comms"],"wikipedia_slug":null,"has_3d_model":false,"image_url":null,"decayed_at":null,"tle_current":{"epoch":"2026-09-20T03:45:24.790752Z","epoch_age_seconds":55521,"freshness":"FRESH","line1":"1 47789U 21018C   26263.15653693 -.00001995  00000+0 -52524-4 0  9991","line2":"2 47789  53.1610  54.2999 0001275  88.6759 271.4389 15.31699007306564","mean_motion":15.31699007,"eccentricity":0.0001275,"inclination_deg":53.161,"raan_deg":54.2999,"arg_perigee_deg":88.6759,"mean_anomaly_deg":271.4389,"bstar":-5.2524e-5,"rev_number":30656,"period_min":94.01324890981,"perigee_km":469.86972311427,"apogee_km":471.61618750288,"semimajor_km":6848.8799553086,"source":"CELESTRAK","updated_at":"2026-09-20T09:00:38.604685Z"}}}